RH
52 49 48 45 49 53 52 50 50 54 55 54 49 44 40 38 35 28 23 20 17 14
57 56 53 56 56 54 54 54 56 56 58 56 50 44 43 40 34 27 22 17 13 9
63 61 63 57 56 57 58 56 58 62 62 58 51 48 45 40 32 26 19 12 9 9
68 65 62 60 58 58 56 58 64 68 65 58 53 51 46 39 31 22 13 10 10 9
71 70 67 61 58 58 59 65 73 72 65 60 55 52 46 37 27 15 11 11 9 9
73 70 67 57 59 62 66 73 76 73 69 63 58 53 44 34 19 14 13 10 9 9
78 73 59 59 63 71 74 77 77 73 69 64 58 51 41 27 16 14 12 9 9 10
85 74 67 67 70 77 78 83 79 75 71 63 56 49 34 22 16 14 10 10 11 12
88 79 72 75 85 85 91 80 78 79 68 59 53 42 28 21 16 13 11 12 13 14
90 86 85 91 94 97 84 84 81 73 64 58 49 33 24 20 16 13 12 14 15 16
91 90 90 97 98 91 85 82 77 69 64 55 37 28 24 20 16 14 14 16 18 19
95 93 97 98 96 89 87 85 76 66 57 41 30 28 23 20 16 15 17 19 22 22
98 97 98 98 94 95 89 78 70 61 46 36 32 27 23 18 16 18 19 22 24 26
97 97 98 96 95 89 78 71 63 51 37 34 32 25 20 17 17 20 22 27 29 32